EN

Hourly Weather La Crau

Today, 25 July, Sunday

Time Temperature Precipitation Wind Pressure Humidity
00:00 +24°C° 0 mm 2 mps 752 mmHg 77%
01:00 +24°C° 0 mm 2 mps 752 mmHg 77%
02:00 +23°C° 0 mm 2 mps 752 mmHg 76%
03:00 +23°C° 0 mm 2 mps 752 mmHg 76%
04:00 +24°C° 0 mm 2 mps 752 mmHg 72%
05:00 +25°C° 0 mm 2 mps 752 mmHg 69%
06:00 +26°C° 0 mm 1 mps 752 mmHg 65%
07:00 +28°C° 0 mm 1 mps 752 mmHg 59%
08:00 +29°C° 0 mm 1 mps 752 mmHg 52%
09:00 +31°C° 0 mm 1 mps 753 mmHg 46%
10:00 +32°C° 0 mm 2 mps 752 mmHg 43%
11:00 +34°C° 0 mm 2 mps 752 mmHg 41%
12:00 +35°C° 0 mm 3 mps 752 mmHg 38%
13:00 +35°C° 0 mm 3 mps 752 mmHg 39%
14:00 +34°C° 0 mm 3 mps 752 mmHg 40%
15:00 +34°C° 0 mm 3 mps 752 mmHg 41%
16:00 +33°C° 0 mm 3 mps 752 mmHg 42%
17:00 +31°C° 0 mm 3 mps 752 mmHg 42%
18:00 +30°C° 0 mm 3 mps 752 mmHg 43%
19:00 +28°C° 0 mm 2 mps 752 mmHg 47%
20:00 +27°C° 0 mm 2 mps 753 mmHg 51%
21:00 +26°C° 0 mm 2 mps 753 mmHg 56%
22:00 +25°C° 0 mm 2 mps 753 mmHg 58%
23:00 +25°C° 0 mm 2 mps 753 mmHg 60%

Tomorrow, 26 July, Monday

Time Temperature Precipitation Wind Pressure Humidity
00:00 +24°C° 0 mm 1 mps 753 mmHg 62%
01:00 +24°C° 0 mm 2 mps 753 mmHg 65%
02:00 +23°C° 0 mm 2 mps 753 mmHg 68%
03:00 +23°C° 0 mm 2 mps 753 mmHg 70%
04:00 +24°C° 0 mm 2 mps 753 mmHg 66%
05:00 +25°C° 0 mm 2 mps 753 mmHg 63%
06:00 +26°C° 0 mm 1 mps 754 mmHg 59%
07:00 +28°C° 0 mm 2 mps 754 mmHg 52%
08:00 +30°C° 0 mm 2 mps 754 mmHg 45%
09:00 +32°C° 0 mm 2 mps 755 mmHg 38%
10:00 +34°C° 0 mm 2 mps 755 mmHg 37%
11:00 +34°C° 0 mm 3 mps 755 mmHg 37%
12:00 +35°C° 0 mm 3 mps 755 mmHg 36%
13:00 +35°C° 0 mm 4 mps 755 mmHg 35%
14:00 +35°C° 0 mm 4 mps 755 mmHg 34%
15:00 +34°C° 0 mm 4 mps 754 mmHg 32%
16:00 +33°C° 0 mm 4 mps 755 mmHg 35%
17:00 +31°C° 0 mm 3 mps 755 mmHg 37%
18:00 +30°C° 0 mm 3 mps 755 mmHg 39%
19:00 +29°C° 0 mm 3 mps 755 mmHg 45%
20:00 +27°C° 0 mm 2 mps 756 mmHg 50%
21:00 +25°C° 0 mm 2 mps 756 mmHg 56%
22:00 +25°C° 0 mm 2 mps 756 mmHg 57%
23:00 +25°C° 0 mm 2 mps 756 mmHg 58%

Day after tomorrow, 27 July, Tuesday

Time Temperature Precipitation Wind Pressure Humidity
00:00 +24°C° 0 mm 1 mps 756 mmHg 59%
01:00 +24°C° 0 mm 1 mps 756 mmHg 60%
02:00 +24°C° 0 mm 1 mps 756 mmHg 61%
03:00 +23°C° 0 mm 1 mps 756 mmHg 61%
04:00 +24°C° 0 mm 1 mps 756 mmHg 59%
05:00 +25°C° 0 mm 2 mps 757 mmHg 57%
06:00 +26°C° 0 mm 2 mps 757 mmHg 54%
07:00 +28°C° 0 mm 3 mps 757 mmHg 49%
08:00 +30°C° 0 mm 3 mps 757 mmHg 43%
09:00 +33°C° 0 mm 3 mps 757 mmHg 37%
10:00 +33°C° 0 mm 4 mps 757 mmHg 37%
11:00 +34°C° 0 mm 4 mps 757 mmHg 37%
12:00 +34°C° 0 mm 5 mps 757 mmHg 36%
13:00 +34°C° 0 mm 4 mps 757 mmHg 35%
14:00 +34°C° 0 mm 3 mps 757 mmHg 34%
15:00 +34°C° 0 mm 3 mps 757 mmHg 33%
16:00 +33°C° 0 mm 3 mps 756 mmHg 37%
17:00 +31°C° 0 mm 3 mps 756 mmHg 41%
18:00 +30°C° 0 mm 3 mps 756 mmHg 44%
19:00 +28°C° 0 mm 3 mps 756 mmHg 51%
20:00 +26°C° 0 mm 3 mps 757 mmHg 58%
21:00 +24°C° 0 mm 3 mps 757 mmHg 65%
22:00 +24°C° 0 mm 2 mps 757 mmHg 67%
23:00 +24°C° 0 mm 2 mps 757 mmHg 69%

28 July, Wednesday

Time Temperature Precipitation Wind Pressure Humidity
00:00 +23°C° 0 mm 2 mps 757 mmHg 71%
01:00 +23°C° 0 mm 2 mps 756 mmHg 70%
02:00 +23°C° 0 mm 2 mps 756 mmHg 70%
03:00 +23°C° 0 mm 2 mps 756 mmHg 69%
04:00 +24°C° 0 mm 2 mps 756 mmHg 64%
05:00 +25°C° 0 mm 2 mps 756 mmHg 59%
06:00 +26°C° 0 mm 2 mps 756 mmHg 55%
07:00 +28°C° 0 mm 3 mps 756 mmHg 49%
08:00 +30°C° 0 mm 3 mps 756 mmHg 43%
09:00 +33°C° 0 mm 3 mps 756 mmHg 37%
10:00 +34°C° 0 mm 4 mps 756 mmHg 38%
11:00 +35°C° 0 mm 4 mps 756 mmHg 38%
12:00 +36°C° 0 mm 5 mps 756 mmHg 39%
13:00 +36°C° 0 mm 5 mps 756 mmHg 40%
14:00 +35°C° 0 mm 5 mps 756 mmHg 40%
15:00 +35°C° 0 mm 4 mps 755 mmHg 41%
16:00 +34°C° 0 mm 4 mps 755 mmHg 45%
17:00 +33°C° 0 mm 3 mps 755 mmHg 50%
18:00 +31°C° 0 mm 3 mps 755 mmHg 55%
19:00 +29°C° 0 mm 3 mps 756 mmHg 63%
20:00 +27°C° 0 mm 2 mps 756 mmHg 71%
21:00 +25°C° 0 mm 2 mps 756 mmHg 79%
22:00 +25°C° 0 mm 2 mps 756 mmHg 80%
23:00 +25°C° 0 mm 2 mps 756 mmHg 81%

29 July, Thursday

Time Temperature Precipitation Wind Pressure Humidity
00:00 +24°C° 0 mm 2 mps 756 mmHg 82%
01:00 +24°C° 0 mm 2 mps 756 mmHg 82%
02:00 +24°C° 0 mm 2 mps 756 mmHg 82%
03:00 +24°C° 0 mm 2 mps 756 mmHg 82%
04:00 +25°C° 0 mm 2 mps 756 mmHg 77%
05:00 +26°C° 0 mm 2 mps 756 mmHg 72%
06:00 +26°C° 0 mm 2 mps 756 mmHg 68%
07:00 +29°C° 0 mm 2 mps 756 mmHg 58%
08:00 +31°C° 0 mm 3 mps 756 mmHg 48%
09:00 +35°C° 0 mm 3 mps 756 mmHg 38%
10:00 +36°C° 0 mm 3 mps 756 mmHg 37%
11:00 +36°C° 0 mm 3 mps 756 mmHg 36%
12:00 +37°C° 0 mm 3 mps 756 mmHg 36%
13:00 +37°C° 0 mm 3 mps 755 mmHg 37%
14:00 +37°C° 0 mm 3 mps 755 mmHg 38%
15:00 +36°C° 0 mm 3 mps 755 mmHg 39%
16:00 +35°C° 0 mm 3 mps 755 mmHg 42%
17:00 +34°C° 0 mm 2 mps 755 mmHg 46%
18:00 +32°C° 0 mm 2 mps 755 mmHg 50%
19:00 +30°C° 0 mm 2 mps 755 mmHg 58%
20:00 +28°C° 0 mm 1 mps 755 mmHg 67%
21:00 +26°C° 0 mm 1 mps 755 mmHg 76%
22:00 +26°C° 0 mm 1 mps 755 mmHg 76%
23:00 +25°C° 0 mm 1 mps 755 mmHg 77%

30 July, Friday

Time Temperature Precipitation Wind Pressure Humidity
00:00 +25°C° 0 mm 1 mps 755 mmHg 77%
01:00 +25°C° 0 mm 1 mps 755 mmHg 76%
02:00 +24°C° 0 mm 1 mps 755 mmHg 76%
03:00 +24°C° 0 mm 1 mps 755 mmHg 75%
04:00 +25°C° 0 mm 1 mps 755 mmHg 70%
05:00 +26°C° 0 mm 1 mps 755 mmHg 66%
06:00 +25°C° 0 mm 0 mps 755 mmHg 61%
07:00 +29°C° 0 mm 1 mps 755 mmHg 53%
08:00 +32°C° 0 mm 1 mps 755 mmHg 45%
09:00 +35°C° 0 mm 2 mps 755 mmHg 37%
10:00 +36°C° 0 mm 3 mps 755 mmHg 36%
11:00 +36°C° 0 mm 3 mps 755 mmHg 34%
12:00 +37°C° 0 mm 4 mps 754 mmHg 33%
13:00 +37°C° 0 mm 5 mps 754 mmHg 34%
14:00 +37°C° 0 mm 5 mps 754 mmHg 35%
15:00 +36°C° 0 mm 5 mps 754 mmHg 36%
16:00 +35°C° 0 mm 5 mps 754 mmHg 40%
17:00 +34°C° 0 mm 5 mps 754 mmHg 44%
18:00 +33°C° 0 mm 4 mps 754 mmHg 48%
19:00 +30°C° 0 mm 4 mps 754 mmHg 52%
20:00 +29°C° 0 mm 4 mps 755 mmHg 56%
21:00 +27°C° 0 mm 4 mps 755 mmHg 61%
22:00 +27°C° 0 mm 3 mps 755 mmHg 60%
23:00 +27°C° 0 mm 3 mps 755 mmHg 60%
Show more